Location: ?eské Ohrazení
(48.9451°N, 14.5854°E)
Time: 19:52:45
(UTC+00:00)

Daily predictions for brighter satellites

Satellite Brightness Start Highest point End
(mag) Time Altitude Azimuth Time Altitude Azimuth Time Altitude Azimuth
Cosmos-2242 2.9 19:14:41 10° S 19:18:52 82° E 19:23:08 10° NNE
Cosmos 1680 Rocket 4.2 19:14:09 10° SSE 19:18:55 35° ESE 19:23:40 10° NE
DELTA 2 DEB (DPAF) 4.3 19:14:43 10° NNE 19:18:57 77° WNW 19:23:11 10° SSW
Gbstr 26 Del rocket 4.4 19:14:24 10° WNW 19:20:33 46° SW 19:25:32 10° SSE
Kosmos-1783 1.6 19:27:08 10° SSW 19:28:32 41° SE 19:29:56 10° NE
SL-16 R/B 2.7 19:27:13 10° S 19:32:27 40° ESE 19:37:43 10° NE
Cosmos 1933 3.2 19:28:50 10° S 19:32:46 76° E 19:36:45 10° NNE
Cosmos 1515 3.4 19:30:42 10° S 19:34:11 76° E 19:37:40 10° NNE
CZ-4C R/B 3.1 19:32:34 10° NNE 19:36:16 71° ESE 19:40:05 10° S
MetOp-B 4.2 19:31:41 10° SSE 19:37:02 80° ENE 19:42:25 10° NNW
Cosmos 2056 Rocket 3.8 19:32:37 10° NNW 19:38:00 59° ENE 19:43:10 10° SE
Lacrosse 5 2.0 19:33:54 10° WNW 19:39:01 76° SW 19:43:56 11° SE
MOS 1 Rocket 4.5 19:34:55 10° SE 19:39:24 34° ENE 19:44:07 10° N
Cosmos 1624 Rocket 4.2 19:35:13 10° NNW 19:40:22 59° ENE 19:45:19 11° SE
Ariane Rocket 3.6 19:36:48 10° SE 19:41:34 44° ENE 19:46:23 10° N
USA 276 1.4 19:40:13 10° WNW 19:42:24 69° N 19:44:40 10° E
Meteor 1-5 Rocket 4.4 19:36:30 10° N 19:42:30 85° ENE 19:48:17 10° SSE
IRS-1C Rocket 4.1 19:37:34 10° SSE 19:42:50 81° ENE 19:48:07 10° NNW
CZ-4 R/B 4.2 19:41:54 10° WSW 19:43:31 12° W 19:45:09 10° WNW
Cosmos 44 3.4 19:39:13 10° NW 19:44:09 69° NE 19:48:23 12° SE
Lacrosse 5 rocket 1.4 19:40:24 10° SW 19:44:39 66° SE 19:48:52 10° ENE
Cosmos 1812 Rocket 3.7 19:41:04 10° SSW 19:45:29 82° W 19:49:56 10° N
Cosmos 2369 Rocket 2.8 19:40:08 10° NNW 19:45:32 47° NE 19:50:37 12° SE
ATLAS 5 CENTAUR R/B 4.3 19:43:50 10° WNW 19:47:26 18° WSW 19:51:29 10° SSW
Cosmos 2221 2.8 19:46:40 10° SSE 19:50:50 49° E 19:55:02 10° NNE
Cosmos 2344 4.3 19:43:03 10° NW 19:51:25 72° SW 20:02:47 11° SSE
Cosmos 2084 3.4 19:50:54 10° NW 19:54:38 60° NE 19:57:45 14° ESE
Resurs 01 Rocket 3.8 19:51:08 10° SSW 19:54:42 23° W 19:58:18 10° NW
Cosmos 2237 Rocket 3.3 19:53:51 10° SW 19:59:22 49° NW 20:04:55 10° NNE
BREEZE-M DEB (TANK) 1.9 19:57:44 10° WSW 20:00:36 47° SSE 20:02:38 10° E
USA 308 4.2 19:59:10 10° W 20:00:58 16° SW 20:02:55 10° S
Cosmos 1378 3.0 19:58:08 10° SSW 20:01:25 72° W 20:04:43 10° N
ATLAS 3B R/B 3.2 19:55:01 10° NW 20:02:49 72° SW 20:09:47 13° SSE
BREEZE-M DEB (TANK) 4.0 20:00:13 10° SW 20:03:55 52° SSE 20:13:51 10° E
Cosmos 921 Rocket 3.5 20:01:15 10° S 20:05:28 43° ESE 20:09:44 10° NNE
Aureole 3 Rocket 2.9 20:02:56 10° N 20:06:30 89° ENE 20:10:56 12° S
GEOS 3 Rocket 3.7 20:02:00 10° NE 20:07:04 51° SE 20:12:01 10° SSW
SPOT 5 3.3 20:03:00 10° S 20:07:37 56° W 20:12:02 10° NNW
Okean 3 Rocket 4.1 20:03:30 10° N 20:07:43 42° ENE 20:10:46 17° SE
Cosmos 923 Rocket 4.3 20:02:44 10° SSW 20:08:03 74° WNW 20:13:25 10° NNE
USA 306 4.0 20:06:05 10° WNW 20:09:37 38° N 20:13:18 10° ENE
Landsat 4 3.5 20:08:44 15° SSE 20:11:34 85° WSW 20:15:06 10° NNW
ARGOS Delta rocket 4.0 20:09:57 11° S 20:14:52 84° WSW 20:19:48 10° NNW
Cosmos 1943 4.1 20:12:15 15° SSE 20:16:01 29° ESE 20:20:50 10° NE
Okean O Rocket 4.2 20:13:49 10° SW 20:16:43 17° W 20:19:37 10° NW
Landsat 5 4.1 20:13:25 10° NNE 20:16:49 31° E 20:18:42 20° SE
USA 234 4.3 20:10:43 10° ENE 20:16:51 44° N 20:22:59 10° WNW
Terra 1.8 20:13:56 13° SSE 20:18:05 82° WSW 20:22:50 10° NNW
Cosmos 1656 Rocket 3.7 20:17:45 10° NNW 20:23:13 80° WSW 20:27:23 18° SSE
ERS-1 Rocket 3.3 20:18:56 12° S 20:23:37 64° WSW 20:28:39 10° NNW
Cosmos 1371 Rocket 4.4 20:18:21 10° NNW 20:23:39 63° WSW 20:28:03 15° S
Cosmos 494 Rocket 4.2 20:21:04 12° S 20:25:31 48° ESE 20:30:26 10° NNE
ATLAS 2AS CENTAUR R/B 3.8 20:20:06 10° WSW 20:27:14 51° NW 20:34:05 10° NE
Cosmos 1842 Rocket 3.8 20:24:38 18° SSE 20:27:46 52° E 20:32:05 10° NNE
SPOT 3 Rocket 3.5 20:24:07 16° SSE 20:28:17 86° WSW 20:33:28 10° NNW
Meteor 1-14 Rocket 4.3 20:22:48 10° N 20:28:40 86° E 20:33:21 17° SSE
USA 59 Rocket 2.1 20:29:00 10° NNW 20:31:34 18° NNE 20:34:34 10° ENE
Meteor 1-11 Rocket 4.1 20:26:33 10° N 20:32:01 50° ENE 20:35:44 20° SE
USA 281 3.2 20:27:32 17° SSE 20:32:47 89° WSW 20:39:26 10° NNW
Cosmos 1943 Rocket 4.3 20:30:51 10° NW 20:34:48 20° W 20:38:44 10° SW
Cosmos 1743 3.2 20:35:25 10° NNW 20:38:57 51° W 20:41:25 18° SSW
Cosmos 1331 Rocket 4.4 20:34:40 10° NNW 20:39:50 54° ENE 20:43:05 22° SE
ARIANE 5 R/B 4.0 20:38:37 17° ESE 20:40:56 27° ENE 20:44:34 10° N
ISS -3.5 20:38:12 10° WNW 20:41:31 67° NNE 20:43:45 19° E
Cosmos 1110 Rocket 4.3 20:36:26 10° NNW 20:41:43 60° ENE 20:45:00 23° SE
Cosmos 1340 Rocket 4.3 20:42:11 19° ESE 20:43:03 21° E 20:46:04 10° NE
USA 245 4.3 20:42:39 13° SW 20:43:48 18° W 20:45:29 10° NW
Cosmos 2279 Rocket 4.0 20:40:14 10° N 20:46:29 86° E 20:50:54 20° S
Cosmos 1634 Rocket 4.3 20:41:09 10° NNW 20:47:23 66° W 20:52:38 15° S
Cosmos 2297 4.2 20:41:50 10° NW 20:47:25 53° WSW 20:51:24 19° S
USA 229 DEB 4.0 20:48:57 10° NW 20:56:21 75° SW 21:01:46 23° SSE
USA 229 4.0 20:49:03 10° NW 20:56:27 75° SW 21:01:53 23° SSE
Cosmos 1726 1.7 20:54:24 10° NNW 20:57:34 73° W 20:58:35 38° S
Spot 2 Rocket 4.4 20:54:06 14° SSW 20:58:04 42° W 21:02:51 10° NNW
Cosmos 1743 Rocket 3.7 21:04:44 10° N 21:09:05 60° ENE 21:10:51 33° SE
MetOp-A 4.1 21:11:24 26° S 21:13:43 57° W 21:18:23 10° NNW
Sich 1 3.0 21:09:45 10° N 21:14:08 72° E 21:15:51 36° SSE
USA 276 3.7 21:14:28 10° W 21:15:14 17° W 21:15:14 17° W
SL-16 R/B 3.5 21:11:14 10° WSW 21:16:34 40° NW 21:21:56 10° NNE
Cosmos 1603 3.8 21:15:41 26° S 21:18:44 56° ESE 21:24:19 10° NE
Cosmos 1536 3.1 21:16:55 10° NNW 21:20:43 56° W 21:22:15 32° SSW
Cosmos 1975 3.9 21:17:19 10° N 21:20:54 32° ENE 21:21:58 27° ESE
Lacrosse 5 3.7 21:17:59 10° W 21:21:17 17° WSW 21:23:08 15° SSW
USA 267 4.0 21:16:24 10° ENE 21:22:00 29° SE 21:23:24 27° SSE
Lacrosse 5 rocket 2.9 21:19:15 10° W 21:23:15 38° NNW 21:27:11 10° NE
Cosmos 1408 Rocket 4.0 21:19:45 10° NNW 21:24:08 57° W 21:26:12 29° SSW
Cosmos 1452 Rocket 3.7 21:19:05 10° NNW 21:24:16 64° WSW 21:26:45 30° S
Meteor 1-27 Rocket 3.6 21:22:18 28° S 21:25:19 77° E 21:30:52 10° NNE
Cosmos 468 4.4 21:22:16 24° SSW 21:25:30 81° ESE 21:30:45 10° NNE
Okean 1 3.3 21:25:59 35° SSW 21:27:29 75° W 21:31:22 10° N
Cosmos 1340 2.3 21:24:54 10° N 21:28:18 70° ENE 21:28:49 57° SE
Cosmos 2369 Rocket 3.3 21:24:27 10° NW 21:29:24 33° WSW 21:32:23 20° SSW
Cosmos 1626 3.7 21:31:50 18° E 21:31:50 18° E 21:33:47 10° NE
PSLV R/B 4.1 21:27:36 10° NNE 21:31:36 51° E 21:32:26 43° SE
USA 306 2.7 21:39:53 10° WNW 21:43:46 75° NNE 21:45:08 38° ESE
SL-8 R/B 3.6 21:51:34 10° WSW 21:56:15 63° SSE 22:00:58 10° E
Terra 4.4 21:55:13 10° W 21:56:27 11° W 21:57:39 10° WNW
Cosmos 1328 Rocket 4.0 21:56:13 41° SE 21:57:00 46° E 22:01:10 10° NNE
USA 234 3.6 21:52:52 10° ESE 21:59:21 65° NNE 22:05:49 10° NW
Cosmos 1733 4.0 21:56:18 10° NNW 21:59:32 35° W 22:00:07 33° WSW
Cosmos 1943 3.9 21:54:13 10° SW 21:59:45 53° NW 22:05:20 10° NNE
Spot 4 3.8 21:58:25 42° SSE 21:59:59 75° ENE 22:04:45 10° N
ALOS 2 3.0 21:58:50 38° ESE 22:00:08 52° ENE 22:04:25 10° N
Meteor 2-4 Rocket 3.8 22:00:28 37° S 22:02:55 72° E 22:08:51 10° NNE
H-2A R/B 2.4 22:02:30 53° S 22:03:23 75° WSW 22:07:37 10° NNW
Cosmos 1470 Rocket 4.3 21:59:12 10° N 22:03:30 44° ENE 22:04:42 35° ESE
IRIDIUM 104 4.4 22:01:00 10° N 22:06:13 72° W 22:08:14 38° SSW
Lacrosse 4 Rocket 2.4 22:05:05 10° NNW 22:08:56 39° NE 22:10:34 27° E
Cosmos 1151 Rocket 3.5 22:08:37 35° SW 22:10:12 56° WNW 22:14:30 10° N
Cosmos 1092 Rocket 3.9 22:10:25 34° S 22:13:19 88° ESE 22:19:41 10° N
Cosmos 1666 Rocket 3.4 22:09:06 10° NNW 22:13:26 81° W 22:14:23 54° S
Cosmos 1302 Rocket 4.3 22:10:34 10° NNW 22:15:39 55° WSW 22:17:13 39° SSW
SAR-Lupe-3 4.4 22:15:44 70° SW 22:15:54 72° WSW 22:19:26 10° NNW
Cosmos 1656 3.8 22:11:11 10° NNW 22:16:37 66° ENE 22:19:03 33° SE
Cosmos 1633 Rocket 3.0 22:12:43 10° N 22:17:10 89° WSW 22:18:08 54° S
ARIANE 5 R/B 3.5 22:16:04 31° SW 22:17:12 37° W 22:21:15 10° NNW
ISS -2.0 22:14:58 10° W 22:16:32 23° W 22:16:32 23° W
Cosmos 1340 Rocket 4.0 22:17:22 27° WSW 22:18:53 37° WNW 22:22:39 10° N
USA 59 Rocket 0.0 22:17:41 10° NW 22:21:34 88° SW 22:22:59 46° SE
NOSS 2-1 (E) 3.5 22:18:33 10° NW 22:22:26 87° SW 22:23:50 46° SE
Cosmos 1842 4.4 22:22:35 28° E 22:22:35 28° E 22:25:47 10° NNE
Cosmos 1066 Rocket 4.4 22:21:45 39° SSE 22:23:47 61° E 22:29:33 10° NNE
Cosmos 1992 Rocket 3.9 22:18:51 10° NNW 22:24:07 89° WSW 22:25:48 44° SSE
H-2A R/B 3.1 22:21:19 10° NNE 22:25:20 33° E 22:25:53 32° ESE
Cosmos 1697 Rocket 3.8 22:22:05 10° NNW 22:27:21 38° NE 22:31:17 17° ESE
Cosmos 1933 Rocket 4.3 22:24:47 10° N 22:28:55 41° ENE 22:30:01 35° ESE
Cosmos 614 Rocket 3.9 22:27:45 41° SSW 22:29:38 89° WNW 22:34:53 10° NNE
Cosmos 1766 3.0 22:26:52 10° N 22:30:37 80° E 22:30:52 74° SE
Cosmos 1980 Rocket 4.1 22:27:54 10° NNW 22:32:35 25° NE 22:37:14 10° E
NOSS 2-1 (D) 3.5 22:30:12 10° NW 22:34:03 67° SW 22:34:55 53° S
Cosmos 1707 3.9 22:34:20 28° E 22:34:20 28° E 22:37:30 10° NNE
Cosmos 1470 3.4 22:30:57 10° N 22:34:30 41° ENE 22:34:54 39° E
Meteor 2-12 Rocket 4.5 22:35:06 39° SSE 22:37:27 70° E 22:43:35 10° NNE
KORONAS-FOTON 4.3 22:43:13 43° E 22:43:13 43° E 22:46:42 10° NNE
Cosmos 2360 4.3 22:47:48 10° NNW 22:53:33 76° ENE 22:56:07 34° SE
Cosmos 1975 4.4 22:53:29 10° NW 22:56:38 23° W 22:57:09 22° W
Cosmos 1417 Rocket 4.5 22:53:59 10° N 23:00:23 84° E 23:03:02 38° SSE
NOSS 3-3 (A) 3.8 22:59:40 43° S 23:01:27 64° SE 23:07:46 10° NE
Lacrosse 5 rocket 3.6 22:58:51 10° WNW 23:02:27 26° N 23:05:57 10° ENE
Cosmos 1626 3.4 23:04:41 26° WNW 23:04:51 26° WNW 23:07:40 10° NNW
USA 267 3.2 22:59:01 10° ENE 23:05:35 85° SE 23:10:42 18° SW
Cosmos 1269 Rocket 4.0 23:04:35 42° SSW 23:06:24 83° WNW 23:11:43 10° NNE
Cosmos 1140 Rocket 4.0 23:05:26 38° SE 23:06:40 46° ESE 23:11:40 10° NNE
Cosmos 1674 2.4 23:07:49 74° WNW 23:07:49 74° WNW 23:11:18 10° N
NOSS 2-1 (C) 4.4 23:05:32 10° WNW 23:09:08 36° WSW 23:09:08 36° WSW
Cosmos 2082 Rocket 3.9 23:08:47 16° ESE 23:10:32 19° E 23:14:22 10° ENE
PSLV R/B 3.7 23:08:15 10° N 23:12:51 72° WNW 23:13:59 49° SW
NOSS 3-4 (A) 4.2 23:10:07 10° NW 23:16:45 62° NE 23:24:25 10° ESE
NOSS 3-4 (C) 4.2 23:10:10 10° NW 23:16:48 61° NE 23:24:28 10° ESE
Cosmos 1300 4.2 23:15:33 10° NNE 23:18:37 26° ENE 23:19:33 23° E
Cosmos 1833 Rocket 2.7 23:17:09 43° S 23:18:54 66° ESE 23:24:29 10° NNE
Meteor 2-10 Rocket 4.4 23:13:25 10° N 23:19:04 49° ENE 23:22:17 25° SE
Cosmos 407 Rocket 4.2 23:18:38 34° SE 23:20:03 41° ESE 23:24:59 10° NE
Cosmos 44 Rocket 3.6 23:18:19 10° NW 23:23:17 65° NE 23:26:07 24° SE
ATLAS CENTAUR R/B 4.5 23:09:57 10° NW 23:24:23 88° SW 23:34:10 10° SE
Cosmos 2315 Rocket 4.1 23:18:18 10° N 23:24:36 75° E 23:27:37 33° SSE
S3M 4.0 23:19:21 10° NNW 23:25:45 78° W 23:28:27 37° S
NOSS 3-3 (C) 3.7 23:26:06 36° SW 23:28:32 88° SE 23:35:03 10° NE
Cosmos 2285 Rocket 4.1 23:29:13 37° S 23:31:44 67° ESE 23:38:02 10° NNE
Cosmos 1515 Rocket 4.4 23:31:37 33° WSW 23:32:44 40° WNW 23:36:50 10° N
GP-B 3.0 23:30:30 10° N 23:34:56 83° W 23:35:54 54° SSW
Cosmos 1400 Rocket 3.7 23:34:57 35° ESE 23:35:40 38° E 23:39:23 10° NNE
ALOS 2 4.4 23:36:13 18° W 23:36:46 19° W 23:39:54 10° NW
Cosmos 1763 Rocket 4.1 23:32:37 10° NNW 23:37:51 54° ENE 23:41:20 20° SE
SL-8 R/B 3.5 23:33:50 10° W 23:38:37 86° S 23:43:24 10° E
Cosmos 1869 Rocket 3.6 23:37:54 10° NNW 23:42:12 61° W 23:42:58 51° SW
CZ-2D R/B 4.4 23:39:03 10° NE 23:42:17 16° E 23:45:28 10° ESE
USA 234 3.3 23:38:50 27° SSE 23:42:27 56° SW 23:48:54 10° WNW
Meteor 1-13 Rocket 4.3 23:41:22 38° SSW 23:43:48 79° WNW 23:49:45 10° N
Cosmos 1733 Rocket 3.5 23:41:09 10° N 23:45:25 56° ENE 23:46:57 35° SE
Lacrosse 4 Rocket 2.7 23:43:38 10° NW 23:46:28 25° W 23:46:28 25° W
Meteor 1-23 Rocket 4.2 23:47:12 38° S 23:49:24 73° E 23:55:01 10° NNE
Aureole 3 4.0 23:50:44 29° E 23:50:46 29° E 23:53:24 10° NNE
Cosmos 1346 Rocket 3.8 23:50:38 10° N 23:54:18 39° ENE 23:55:56 26° ESE
Cosmos 1356 Rocket 4.4 23:54:26 30° SE 23:55:32 36° E 23:59:18 10° NNE
APEX 4.4 23:57:40 20° NNW 23:57:40 20° NNW 23:58:48 10° N
